Tracking 18840 objects as of 17-November-2017
HD Live streaming from Space Station
objects crossing your sky now

FENGYUN 1C DEB

Track FENGYUN 1C DEB now!
10-day predictions


NORAD ID: 30607
Int'l Code: 1999-025AMN
Perigee: 765.8 km
Apogee: 832.9 km
Inclination: 98.9 °
Period: 100.7 minutes
Semi major axis: 7170 km
RCS: 0.039 m2 (small)
Launch date: May 10, 1999
Source: People's Republic of China (PRC)
Launch site: Taiyaun Space Center, China (TSC)

Note: This is SATELLITE DEBRIS
aabbcc
Your satellite tracking list
Your tracking list is empty




NASA's NSSDC Master Catalog

Two Line Element Set (TLE):
1 30607U 99025AMN 17321.11327659  .00002040  00000-0  80126-3 0  9995
2 30607  98.9181  15.3704 0046760  96.3332 264.3178 14.29854154556070
Source of the keplerian elements: AFSPC